Regional Weather Roundup
Issued by NWS

Home | Current Version | Previous Version | Text Only | Print | Product List | Glossary On
Versions: 1 2 3 4 5 6 7 8 9 10 11 12 13 14 15 16 17 18 19 20 21 22 23 24 25 26 27 28 29 30 31 32 33 34 35 36 37 38 39 40 41 42 43 44 45 46 47 48 49 50
000
ASUS44 KMEG 031110
RWRTN
TENNESSEE HOURLY STATE WEATHER ROUNDUP
NATIONAL WEATHER SERVICE MEMPHIS TN
600 AM CDT TUE AUG 03 2021

TNZ002-004-019-021-049-052-054-088>092-031200-
WEST TENNESSEE

CITY           SKY/WX    TMP DP  RH WIND       PRES   REMARKS
MEMPHIS INTL   MOCLDY    70  62  76 E7        30.02R
NWS MEMPHIS      N/A     67 N/A N/A MISG        N/A
JACKSON        CLEAR     61  59  93 CALM      30.04R
DYERSBURG      CLEAR     63  63 100 CALM      30.05R
COVINGTON      PTCLDY    63  63 100 NW3       30.03S
UNION CITY     CLEAR     61  61 100 CALM      30.03S
PARIS          PTCLDY    55  55 100 CALM      30.03S FOG
LEXINGTON      PTCLDY    59  59 100 N3        30.02S
SELMER         PTCLDY    63  61  94 CALM      30.02S
SAVANNAH       PTCLDY    63  63 100 CALM      30.01S FOG
$$

TNZ008-025-027-028-033-062-065-066-031200-
NORTH MIDDLE TENNESSEE

CITY           SKY/WX    TMP DP  RH WIND       PRES   REMARKS
NASHVILLE      CLEAR     63  58  83 CALM      30.03R
DICKSON        PTCLDY    59  57  94 CALM      30.03R
PORTLAND       CLEAR     57  57 100 CALM      30.03R
CLARKSVILLE    PTCLDY    59  57  93 CALM      30.04R
LEBANON        PTCLDY    59  59 100 CALM      30.00R
SMYRNA           N/A    N/A N/A N/A MISG        N/A
MURFREESBORO   PTCLDY    63  59  88 CALM      30.01R
COOKEVILLE     CLOUDY    61  61 100 CALM      30.03R
LIVINGSTON     CLOUDY    63  61  94 NE3       30.03S
GALLATIN       PTCLDY    59  59 100 CALM      30.05R FOG
CROSSVILLE     CLEAR     59  58  96 CALM      30.06R FOG
$$

TNZ061-075-076-078-094-096-097-031200-
SOUTH MIDDLE TENNESSEE

CITY           SKY/WX    TMP DP  RH WIND       PRES   REMARKS
LAWRENCEBURG   PTCLDY    61  59  94 CALM      30.02S
LEWISBURG      CLEAR     59  59 100 CALM      30.02R
FAYETTEVILLE   CLEAR     63  63 100 NE5       30.03R
TULLAHOMA      CLEAR     61  59  94 CALM      30.01S
WINCHESTER     FOG       61  61 100 CALM      30.01S VSB 0
MCMINNVILLE    FOG       61  59  94 CALM      30.02S VSB 1/4
COLUMBIA       CLEAR     61  61 100 CALM      30.01R FOG
SHELBYVILLE    CLEAR     59  59 100 CALM      30.02R FOG
$$

TNZ017-018-042-046-047-031200-
NORTHEAST TENNESSEE

CITY           SKY/WX    TMP DP  RH WIND       PRES   REMARKS
TRI CITIES     MOCLDY    67  60  78 CALM      30.04S
ELIZABETHTON   MOCLDY    70  61  73 E5        30.04S
GREENEVILLE    CLOUDY    66  61  82 CALM      30.03S
$$

TNZ012-013-036-069-073-074-031200-
CENTRAL EAST TENNESSEE

CITY           SKY/WX    TMP DP  RH WIND       PRES   REMARKS
KNOXVILLE      CLOUDY    68  62  81 E3        30.00R
OAK RIDGE      CLOUDY    66  62  87 CALM      30.02S
DOWNTOWN KNOXV CLOUDY    66  64  94 CALM      30.01S
GATLINBURG     CLEAR     64  64 100 CALM      30.01R FOG
JACKSBORO      CLOUDY    64  63  94 CALM        N/A
$$

TNZ083-085-099-031200-
SOUTHEAST TENNESSEE

CITY           SKY/WX    TMP DP  RH WIND       PRES   REMARKS
CHATTANOOGA    PTCLDY    69  63  81 CALM      30.00R
$$

SKY/WX REPORTED AS FAIR MEANS FEW OR NO CLOUDS BELOW
12 THOUSAND FEET.




USA.gov is the U.S. government's official web portal to all federal, state and local government web resources and services.